Weather in Nikol'skoe

Russia / Vologda Oblast     59°21′13″N   37°10′37″E
temp.,
°C
wind,
m/s
gust,
m/s
humid.,
%
clouds,
%
prec.,
mm/h
press.,
hPa
HPBL,
m
25 january, tue
tue2500:00−9ssw51586100 0.0 1023433
03:00−8ssw51587100 0.0 1020465
06:00−7ssw51394100 0.4 1017502
09:00−7ssw41293100 0.9 1015473
12:00−6sw4994100 0.6 1014434
15:00−5sw3795100 1.5 1013365
18:00−5sw2697100 0.6 1012206
21:00−5w269888 0.8 1013174
26 january, wed
wed2600:00−7nnw269992 0.0 1014106
03:00−12nnw259759 0.0 101577
06:00−14nw2310094 0.0 101650
09:00−16nw2310099 0.1 101746
12:00−10nw12925 0.0 101795
15:00−9wnw23945 0.0 1017105
18:00−16wsw119967 0.0 10179
21:00−18sw1110089 0.0 10169
27 january, thu
thu2700:00−18s11100100 0.0 101517
03:00−14sse2498100 0.0 101486
06:00−13sse2697100 0.0 1012134
09:00−12sse31095100 0.0 1010229
12:00−10sse41192100 0.0 1008355
15:00−9sse41189100 0.0 1006465
18:00−9sse51294100 0.1 1004537
21:00−8sse41193100 0.5 1003501
28 january, fri
fri2800:00−8sse41094100 0.3 1002440
03:00−8sse41094100 0.7 1001422
06:00−8sse41094100 0.6 1000418
09:00−8se41095100 0.9 1000379
12:00−7se4994100 0.6 1000368
15:00−7se4994100 1.3 1000366
18:00−8se3895100 0.7 1001344
21:00−8se3795100 1.7 1002287
29 january, sat
sat2900:00−8ese2596100 0.8 1002227
03:00−8e1297100 1.8 1003140
06:00−8n1197100 0.8 100468
09:00−9nw249774 1.1 1005103
12:00−10nnw379296 0.1 1006290
15:00−10nw379487 0.1 1006330
18:00−16wnw2510089 0.0 100663
21:00−21nw1110098 0.0 10059